Back to catalog

STARLINK-34579

AliveCommunicationsVLEO
NORAD 64925·PAYLOAD·🇺🇸 United States

Launched Jul 26, 2025 from Cape Canaveral Space Force Station

Loading…

Next Passes (next 24 hours)

TLE

FreshSource: CelesTrak SupGP

Epoch: Sep 14, 2026, 23:07 UTC

1 64925C 25157X   26257.96368056 -.00071515  00000+0 -21123-2 0  2579
2 64925  53.1571 183.5017 0001272  84.2674 321.0220 15.34435273    16

Track STARLINK-34579 in real time with AllMySat

Download on the App Store